Location: Cella
(44.7333°N, 10.5667°E)
Time: 10:17:56
(UTC+00:00)

Cosmos 1777 Rocket - Pass Details

Date: 19 June 2021
Orbit: 757 x 776 km, 74.0° (Epoch: 28 July)

Event Time Altitude Azimuth Distance (km) Brightness Sun altitude
Rises 00:29:53 0° 321° (NW) 3,260 7.7 -19.9°
Reaches altitude 10° 00:33:14 10° 300° (WNW) 2,329 6.6 -19.8°
Maximum altitude 00:36:10 15° 266° (W) 1,990 5.9 -19.6°
Enters shadow 00:36:41 15° 259° (W) 2,001 5.9 -19.6°
